Regional Weather Roundup
Issued by NWS Midland/Odessa, TX

Skip options and go directly to product.
Home | Oldest Version | Previous Version | Current Version | All | Text Only | Save Text | Print | Product List | Glossary On

Skip product version selection by date and time.   
262
ASUS44 KMAF 190202
RWRMAF
MIDLAND AREA WEATHER ROUNDUP
NATIONAL WEATHER SERVICE MIDLAND TX
900 PM CDT FRI APR 18 2014

...IN SOUTHWEST TEXAS AND SOUTHEAST NEW MEXICO...

CITY           SKY/WX    TMP DP  RH WIND       PRES   REMARKS
ALPINE         MOCLDY    67  50  55 S13       30.14R
ANDREWS        FAIR      69  44  39 SE10G16   30.07S
ARTESIA        MOCLDY    70  41  35 SE14      30.02S
BIG SPRING     PTCLDY    72  44  36 E9        30.09F
CARLSBAD       MOCLDY    72  43  35 SE8       30.01S
DRYDEN           N/A     71  50  47 E14       30.04R
FORT STOCKTON  PTCLDY    68  46  45 SE16      30.06R
GUAD PASS      CLOUDY    64  42  44 E29       30.10R
HOBBS          CLEAR     66  41  39 SE10      30.09R
MARFA          PTCLDY    64  50  59 E10G17    30.11F
MIDLAND AIRPK  PTCLDY    73  44  34 SE10G16   30.07R
MIDLAND INTL   PTCLDY    71  45  39 SE10      30.06R
ODESSA         PTCLDY    71  45  39 SE10      30.07R
PECOS          PTCLDY    73  47  40 E17       30.00R
PRESIDIO       FAIR      78  52  40 NE17G23   29.95R
SEMINOLE       PTCLDY    68  42  38 SE8       30.09R
SNYDER         MOCLDY    69  46  42 SE8       30.10R
WINK           PTCLDY    72  45  37 SE13      30.02R
$$
...OTHER STATIONS IN TEXAS...

CITY           SKY/WX    TMP DP  RH WIND       PRES   REMARKS
ABILENE        CLOUDY    67  45  45 SE9       30.11R
AMARILLO       CLOUDY    65  43  44 S16       30.07R
AUSTIN         PTCLDY    65  54  67 E5        30.10R
BROWNSVILLE    CLEAR     66  61  84 E9        30.11S
CORPUS CHRISTI CLOUDY    68  57  68 SE7       30.10R
DALLAS FTW     MOCLDY    68  46  45 E7        30.12S
DEL RIO        CLEAR     74  52  46 SE9       30.04R
EL PASO        CLOUDY    77  35  21 S15G30    29.98S
HOUSTON INT    PTCLDY    66  54  65 NE3       30.11R
LUBBOCK        CLOUDY    64  45  49 S13       30.10R
SAN ANGELO     CLEAR     70  44  39 E12       30.08R
SAN ANTONIO    MOCLDY    68  56  65 E7        30.10R
WACO           MOCLDY    65  52  62 E7        30.11F
WICHITA FALLS  NOT AVBL
$$
...OTHER LOCATIONS IN NEW MEXICO...

CITY           SKY/WX    TMP DP  RH WIND       PRES   REMARKS
ALAMAGORDO     CLOUDY    73  32  21 SE10      29.98S
ALBUQUERQUE    CLOUDY    71  21  15 S21       30.01R
CANNON AFB     NOT AVBL
CLOVIS         CLOUDY    61  43  51 S12       30.12R
HOLLOMAN AFB   CLOUDY    75  36  23 S15       29.98R
ROSWELL        MOCLDY    70  42  36 SE10      30.02S
RUIDOSO        CLOUDY    57  37  47 SE13      30.17R
SANTA FE       CLOUDY    67  23  19 SW32G41   30.04S
TRUTH OR CONSE CLOUDY    69  28  21 W16       30.03R
TUCUMCARI      CLOUDY    68  43  40 S21G31    30.00R
$$

USA.gov is the U.S. government's official web portal to all federal, state and local government web resources and services.